Location: Bukit Lungun
(2.6833°N, 113.9667°E)
Time: 11:13:03
(UTC+00:00)

Alouette 2 Rocket - Pass Details

Date: 02 March 2021
Orbit: 502 x 2649 km, 79.8° (Epoch: 20 April)

Event Time Altitude Azimuth Distance (km) Brightness Sun altitude
Rises 21:41:19 0° 208° (SSW) 2,606 6.6 -13.9°
Reaches altitude 10° 21:43:28 10° 221° (SW) 1,776 5.6 -13.4°
Maximum altitude 21:46:42 28° 282° (WNW) 1,141 4.3 -12.6°
Drops below altitude 10° 21:50:42 10° 340° (NNW) 2,228 6.2 -11.6°
Sets 21:53:45 0° 352° (N) 3,437 7.2 -10.8°
